Location: Castillon
(43.0896°N, 0.2156°E)
Time: 19:58:18
(UTC+00:00)

KORONAS-FOTON - Pass Details

Date: 16 June 2021
Orbit: 506 x 530 km, 82.4° (Epoch: 02 August)

Event Time Altitude Azimuth Distance (km) Brightness Sun altitude
Exits shadow 21:36:09 16° 201° (SSW) 1,417 5.7 -15.8°
Maximum altitude 21:39:07 62° 279° (W) 582 4.2 -16.1°
Drops below altitude 10° 21:42:54 10° 2° (N) 1,736 7.3 -16.4°
Sets 21:45:03 0° 5° (N) 2,624 8.3 -16.6°
